Regional Weather Roundup
Issued by NWS Newport/Morehead, NC

Home | Current Version | Previous Version | Text Only | Print | Product List | Glossary On
Versions: 1 2 3 4 5 6 7 8 9 10 11 12 13 14 15 16 17 18 19 20 21 22 23 24 25 26 27 28 29 30 31 32 33 34 35 36 37 38 39 40 41 42 43 44 45 46 47 48 49 50
000
ASUS42 KMHX 221022
RWRMHX
WEATHER ROUNDUP FOR EASTERN NORTH CAROLINA
NATIONAL WEATHER SERVICE NEWPORT/MOREHEAD CITY NC
600 AM EDT FRI AUG 22 2014

NOTE: "FAIR" INDICATES FEW OR NO CLOUDS BELOW 12,000 FEET
WITH NO SIGNIFICANT WEATHER AND/OR OBSTRUCTIONS TO VISIBILITY

NCZ015>017-031-032-045>047-102-103-221100-
NORTH COAST

CITY           SKY/WX    TMP DP  RH WIND       PRES   REMARKS
EDENTON        CLOUDY    74  73  96 CALM      29.98R
ELIZABETH CITY LGT RAIN  73  70  88 CALM      29.98R FOG
KITTY HAWK     RAIN      77  74  88 NW9       29.96R
MANTEO         CLOUDY    77  73  88 W7        29.97R

$$

NCZ045>047-081-094-103-104-221100-
CENTRAL COAST

CITY           SKY/WX    TMP DP  RH WIND       PRES   REMARKS
FRISCO         PTCLDY    79  79 100 W5        29.96R
SWANQUARTER      N/A     77 N/A N/A N3        29.94S

$$

NCZ095-097-098-100-101-221100-
SOUTHERN COAST

CITY           SKY/WX    TMP DP  RH WIND       PRES   REMARKS
BEAUFORT       PTCLDY    80  73  79 W6        29.97S
CEDAR ISLAND     N/A     79 N/A N/A W5        30.00S
JACKSONVILLE   CLEAR     75  73  93 W3        29.98S
NEWPORT        NOT AVBL
PINEY ISLAND   MOSUNNY   79  77  94 W6        29.97R
WILMINGTON     PTCLDY    77  74  90 CALM      29.98F


$$

NCZ011>013-027>030-043-044-078>080-089-090>093-098-221100-
COASTAL PLAIN

CITY           SKY/WX    TMP DP  RH WIND       PRES   REMARKS
AHOSKIE        MOCLDY    70  69  97 CALM      29.98S
CLINTON        PTCLDY    73  73  98 CALM      30.01R
ELIZABETHTOWN  MOCLDY    77  75  94 CALM      30.00R
GOLDSBORO      PTCLDY    75  74  98 SW3       29.98R
GREENVILLE     CLEAR     73  73 100 CALM      30.00S FOG
HAVELOCK       PTCLDY    76  73  91 CALM      29.98S
KENANSVILLE    PTCLDY    72  71  95 CALM      30.00R
KINSTON        CLEAR     74  72  93 SW5       30.00R
NEW BERN       CLEAR     77  72  84 CALM      29.99R
RICHLANDS      PTCLDY    73  70  88 CALM      29.99R
ROANOKE RAPIDS NOT AVBL
ROCKY MOUNT    PTCLDY    72  71  97 SW3       29.99R FOG
WASHINGTON     PTCLDY    75  73  94 CALM      29.99R
WHITEVILLE     MOCLDY    76  74  93 CALM      29.99S

$$

AMZ130-135-150-152-154-156-158-170-250-252-270-ANZ085-086-088-633-658-670-221100-
MARINE OBSERVATIONS

STATION/POSITION TIME  TEMP    WIND        PRES    WAVE   SWELL
                       AIR SEA DIR/SP/G            HT/PER HT/PER
                 (UTC) (F)     (DEG/KT/KT) (MB)    (FT/S) (FT/S)
CHESAPEAKE LIGHT 1000   77     150/  7/  7 1014.8
BUOY 44014       1000   76 77  160/  8/ 10 1013.6    2/ 6   2/ 6
DUCK             1000   79 78  280/ 15/ 17 1014.1
2E DUCK          1000                        N/A     2/ 6
OREGON INLET     1000   79 83  290/ 11/ 16 1014.5
BUOY 44095       1000      80                N/A     2/ 8
20E OREGON INLET NOT AVBL
HATTERAS CG      1000   80 82  240/  4/  6 1014.8
DIAMOND BUOY     1000   81     240/  8/ 10 1014.3    2/ 8   2/ 8
CAPE LOOKOUT     1000   81     270/  8/  9 1014.8
BEAUFORT LAB     1000   80 82  300/  4/  6 1014.8
30 SE NEW RIVER  1000   82 82  270/ 12/ 14 1014.6    2/ 5   2/ 8
5 SE WRIGHTSVILL 1000   76 82  260/  8/ 10   N/A
BUOY 41002       0856   82 82  250/ 12/ 14 1017.4    2/ 9   2/ 9
BUOY 41004       1000   84 84  260/ 10/ 12 1015.6    2/ 8   2/ 8

$$


USA.gov is the U.S. government's official web portal to all federal, state and local government web resources and services.